Tracking 31027 objects as of 19-Jul-2025
HD Live streaming from Space Station
objects crossing your sky now

STARLINK-11134

Track STARLINK-11134 now!
10-day predictions
STARLINK-11134 is classified as:


NORAD ID: 59956
Int'l Code: 2024-107M
Perigee: 366.4 km
Apogee: 367.4 km
Inclination: 53.2 °
Period: 91.7 minutes
Semi major axis: 6737 km
RCS: Unknown
Launch date: June 5, 2024
Source: United States (US)
Launch site: AIR FORCE EASTERN TEST RANGE (AFETR)
Your satellite tracking list
STARLINK-1243
Track 1 satellite(s)




NASA's NSSDC Master Catalog

Two Line Element Set (TLE):
1 59956U 24107M   25199.73173672 -.00000616  00000-0 -23390-6 0  9998
2 59956  53.1582 324.3381 0000729  44.2024 315.9052 15.69704889 65089
Source of the keplerian elements: AFSPC